[Date Prev][Date Next][Thread Prev][Thread Next] - [Date Index][Thread Index][Author Index]
2 Line ISS Keps 2-16
- Subject: [sarex] 2 Line ISS Keps 2-16
- From: "Dave Larsen PhD" <doc@xxxxxxxxxxx>
- Date: Thu, 16 Feb 2006 05:42:52 -0800
ISS
1 25544U 98067A 06047.51323940 .00006659 00000-0 48978-4 0 3602
2 25544 051.6444 088.1217 0008355 296.5813 199.1797 15.74508550414145
----
Via the sarex mailing list at AMSAT.ORG courtesy of AMSAT-NA.
To unsubscribe, send "unsubscribe sarex" to Majordomo@amsat.org
AMSAT Home